Location: Newark
(12.4436°N, 0.6167°W)
Time: 01:38:46
(UTC+00:00)

A-11 Canister half - Visible Passes

Search period start: 25 January 2021 00:00
Search period end: 04 February 2021 00:00
Orbit: 1524 x 1684 km, 47.3° (Epoch: 24 January)

Date Brightness Start Highest point End Pass type
(mag) Time Alt. Az. Time Alt. Az. Time Alt. Az.
25 Jan 10.6 20:28:34 10° NNW 20:30:59 17° N 20:30:59 17° N visible
26 Jan 10.4 20:07:04 10° NNW 20:10:58 20° N 20:10:58 20° N visible
27 Jan 10.2 19:45:36 10° N 19:51:04 22° NNE 19:51:04 22° NNE visible
27 Jan 11.1 21:48:42 10° NW 21:49:25 13° NW 21:49:25 13° NW visible
28 Jan 10.1 19:24:08 10° N 19:31:14 22° NE 19:31:16 22° NE visible
28 Jan 10.6 21:27:02 10° NW 21:29:38 21° NW 21:29:38 21° NW visible
29 Jan 10.1 19:02:41 10° N 19:09:28 21° NE 19:11:37 19° NE visible
29 Jan 10.1 21:05:23 10° NW 21:10:00 33° NW 21:10:00 33° NW visible
30 Jan 10.2 18:41:16 10° N 18:47:42 19° NE 18:52:09 14° ENE visible
30 Jan 9.5 20:43:45 10° NW 20:50:33 51° NNW 20:50:33 51° NNW visible
31 Jan 10.3 18:19:51 10° N 18:25:55 18° NE 18:32:03 10° ENE visible
31 Jan 8.9 20:22:07 10° NW 20:31:18 73° NNE 20:31:18 73° NNE visible
31 Jan 11.3 22:29:20 10° W 22:29:43 11° W 22:29:43 11° W visible
01 Feb 8.9 20:00:30 10° NW 20:10:15 71° NE 20:12:21 58° ESE visible
01 Feb 10.9 22:07:22 10° WNW 22:10:48 19° W 22:10:48 19° W visible
02 Feb 9.0 19:38:53 10° NW 19:48:34 67° NE 19:53:46 32° ESE visible
02 Feb 10.5 21:45:26 10° WNW 21:52:14 27° WSW 21:52:14 27° WSW visible
03 Feb 9.0 19:17:17 10° NNW 19:26:53 63° NE 19:35:42 14° SE visible
03 Feb 10.4 21:23:32 10° WNW 21:31:42 30° SW 21:34:14 27° SSW visible
